Location: Easthampton
(42.2676°N, 72.6690°W)
Time: 03:19:19
(UTC+00:00)

RS-44 - Pass Details

Date: 22 April 2024
Orbit: 1174 x 1511 km, 82.5° (Epoch: 27 May)

Event Time Altitude Azimuth Distance (km) Brightness Sun altitude
Rises 09:23:29 0° 5° (N) 4,313 ? -6.8°
Reaches altitude 10° 09:28:47 10° 34° (NE) 3,255 ? -5.9°
Maximum altitude 09:31:31 12° 56° (NE) 3,056 ? -5.5°
Drops below altitude 10° 09:34:11 10° 78° (ENE) 3,177 ? -5.0°
Sets 09:39:08 0° 107° (ESE) 4,086 ? -4.2°
